Time,TemperatureF,DewpointF,PressureIn,WindDirection,WindDirectionDegrees,WindSpeedMPH,WindSpeedGustMPH,Humidity,HourlyPrecipIn,Conditions,Clouds,dailyrainin,SoftwareType,DateUTC
2013-01-20 00:01:00,41.2,34.5,30.00,SSW,203,4.5,9.2,77,0.00,,,0.00,WUHU216HW,2013-01-20 05:01:00,
2013-01-20 00:03:00,41.2,34.5,30.00,NW,315,3.4,10.7,77,0.00,,,0.00,WUHU216HW,2013-01-20 05:03:00,
2013-01-20 00:08:00,41.2,34.5,30.00,WSW,248,3.6,10.7,77,0.00,,,0.00,WUHU216HW,2013-01-20 05:08:00,
2013-01-20 00:13:00,41.0,34.3,29.99,West,270,4.5,9.2,77,0.00,,,0.00,WUHU216HW,2013-01-20 05:13:00,
2013-01-20 00:18:00,41.0,34.3,29.99,West,270,5.6,9.8,77,0.00,,,0.00,WUHU216HW,2013-01-20 05:18:00,
2013-01-20 00:23:00,41.0,34.7,29.99,WSW,248,4.7,9.8,78,0.00,,,0.00,WUHU216HW,2013-01-20 05:23:00,
2013-01-20 00:28:00,41.0,34.7,29.98,SW,225,5.1,9.2,78,0.00,,,0.00,WUHU216HW,2013-01-20 05:28:00,
2013-01-20 00:33:00,40.9,34.5,29.97,SSW,203,2.0,6.3,78,0.00,,,0.00,WUHU216HW,2013-01-20 05:33:00,
2013-01-20 00:38:00,40.9,34.1,29.97,WSW,248,4.7,6.7,77,0.00,,,0.00,WUHU216HW,2013-01-20 05:38:00,
2013-01-20 00:43:00,40.9,34.1,29.97,West,270,4.5,7.6,77,0.00,,,0.00,WUHU216HW,2013-01-20 05:43:00,
2013-01-20 00:48:00,41.0,34.0,29.96,WSW,248,3.6,7.6,76,0.00,,,0.00,WUHU216HW,2013-01-20 05:48:00,
2013-01-20 00:53:00,41.0,34.0,29.96,SW,225,3.8,6.9,76,0.00,,,0.00,WUHU216HW,2013-01-20 05:53:00,
2013-01-20 00:58:00,41.0,33.7,29.96,WSW,248,2.9,6.7,75,0.00,,,0.00,WUHU216HW,2013-01-20 05:58:00,
2013-01-20 01:03:00,41.0,33.7,29.95,West,270,5.4,6.0,75,0.00,,,0.00,WUHU216HW,2013-01-20 06:03:00,
2013-01-20 01:08:00,41.0,33.3,29.95,NNW,338,3.4,6.5,74,0.00,,,0.00,WUHU216HW,2013-01-20 06:08:00,
2013-01-20 01:13:00,41.2,33.5,29.95,WSW,248,2.0,6.5,74,0.00,,,0.00,WUHU216HW,2013-01-20 06:13:00,
2013-01-20 01:18:00,41.2,33.5,29.96,WSW,248,4.7,6.9,74,0.00,,,0.00,WUHU216HW,2013-01-20 06:18:00,
2013-01-20 01:23:00,41.2,33.5,29.94,NW,315,2.2,7.6,74,0.00,,,0.00,WUHU216HW,2013-01-20 06:23:00,
2013-01-20 01:28:00,41.2,33.8,29.94,WSW,248,2.5,7.6,75,0.00,,,0.00,WUHU216HW,2013-01-20 06:28:00,
2013-01-20 01:33:00,41.0,33.7,29.94,West,270,3.6,6.7,75,0.00,,,0.00,WUHU216HW,2013-01-20 06:33:00,
2013-01-20 01:38:00,41.2,33.5,29.94,WSW,248,6.3,6.7,74,0.00,,,0.00,WUHU216HW,2013-01-20 06:38:00,
2013-01-20 01:43:00,41.2,33.5,29.94,WSW,248,4.9,6.9,74,0.00,,,0.00,WUHU216HW,2013-01-20 06:43:00,
2013-01-20 01:48:00,41.2,33.2,29.93,WSW,248,4.0,6.9,73,0.00,,,0.00,WUHU216HW,2013-01-20 06:48:00,
2013-01-20 01:53:00,41.4,33.0,29.93,WSW,248,4.0,9.4,72,0.00,,,0.00,WUHU216HW,2013-01-20 06:53:00,
2013-01-20 01:58:00,41.4,33.0,29.92,WSW,248,3.1,9.4,72,0.00,,,0.00,WUHU216HW,2013-01-20 06:58:00,
2013-01-20 02:03:00,41.6,33.0,29.93,WSW,248,6.5,9.2,71,0.00,,,0.00,WUHU216HW,2013-01-20 07:03:00,
2013-01-20 02:08:00,41.6,33.2,29.93,NNW,338,3.1,9.2,72,0.00,,,0.00,WUHU216HW,2013-01-20 07:08:00,
2013-01-20 02:13:00,41.4,33.0,29.93,West,270,4.7,7.6,72,0.00,,,0.00,WUHU216HW,2013-01-20 07:13:00,
2013-01-20 02:18:00,41.4,32.8,29.93,SW,225,2.5,8.5,71,0.00,,,0.00,WUHU216HW,2013-01-20 07:18:00,
2013-01-20 02:23:00,41.4,32.8,29.93,WSW,248,3.1,8.5,71,0.00,,,0.00,WUHU216HW,2013-01-20 07:23:00,
2013-01-20 02:28:00,41.4,32.8,29.93,WSW,248,4.0,9.4,71,0.00,,,0.00,WUHU216HW,2013-01-20 07:28:00,
2013-01-20 02:33:00,41.4,33.0,29.93,SW,225,7.4,9.4,72,0.00,,,0.00,WUHU216HW,2013-01-20 07:33:00,
2013-01-20 02:38:00,41.4,33.4,29.92,NW,315,3.1,11.2,73,0.00,,,0.00,WUHU216HW,2013-01-20 07:38:00,
2013-01-20 02:43:00,41.2,33.2,29.92,WSW,248,4.0,11.2,73,0.00,,,0.00,WUHU216HW,2013-01-20 07:43:00,
2013-01-20 02:48:00,41.2,33.2,29.92,SW,225,3.4,7.6,73,0.00,,,0.00,WUHU216HW,2013-01-20 07:48:00,
2013-01-20 02:53:00,41.2,32.9,29.91,SW,225,5.1,11.0,72,0.00,,,0.00,WUHU216HW,2013-01-20 07:53:00,
2013-01-20 02:58:00,41.0,32.7,29.91,WSW,248,5.1,11.0,72,0.00,,,0.00,WUHU216HW,2013-01-20 07:58:00,
2013-01-20 03:03:00,41.0,33.0,29.91,WNW,293,3.1,8.3,73,0.00,,,0.00,WUHU216HW,2013-01-20 08:03:00,
2013-01-20 03:08:00,41.0,33.0,29.91,West,270,4.9,7.8,73,0.00,,,0.00,WUHU216HW,2013-01-20 08:08:00,
2013-01-20 03:13:00,41.0,33.0,29.91,SSW,203,3.4,8.5,73,0.00,,,0.00,WUHU216HW,2013-01-20 08:13:00,
2013-01-20 03:18:00,41.0,33.0,29.91,West,270,7.6,8.5,73,0.00,,,0.00,WUHU216HW,2013-01-20 08:18:00,
2013-01-20 03:23:00,41.0,33.0,29.90,WSW,248,3.6,7.6,73,0.00,,,0.00,WUHU216HW,2013-01-20 08:23:00,
2013-01-20 03:28:00,40.9,32.9,29.90,WSW,248,4.5,8.1,73,0.00,,,0.00,WUHU216HW,2013-01-20 08:28:00,
2013-01-20 03:33:00,40.9,32.9,29.90,West,270,3.4,8.1,73,0.00,,,0.00,WUHU216HW,2013-01-20 08:33:00,
2013-01-20 03:38:00,40.9,32.9,29.90,West,270,4.7,7.6,73,0.00,,,0.00,WUHU216HW,2013-01-20 08:38:00,
2013-01-20 03:43:00,41.0,33.0,29.89,West,270,7.8,8.5,73,0.00,,,0.00,WUHU216HW,2013-01-20 08:43:00,
2013-01-20 03:48:00,41.0,32.7,29.89,SSW,203,4.7,8.5,72,0.00,,,0.00,WUHU216HW,2013-01-20 08:48:00,
2013-01-20 03:53:00,41.0,32.7,29.89,WSW,248,3.1,8.3,72,0.00,,,0.00,WUHU216HW,2013-01-20 08:53:00,
2013-01-20 03:58:00,41.0,32.7,29.88,SW,225,5.6,8.3,72,0.00,,,0.00,WUHU216HW,2013-01-20 08:58:00,
2013-01-20 04:03:00,41.0,32.7,29.88,West,270,5.6,9.6,72,0.00,,,0.00,WUHU216HW,2013-01-20 09:03:00,
2013-01-20 04:08:00,41.2,32.6,29.88,NW,315,6.7,9.6,71,0.00,,,0.00,WUHU216HW,2013-01-20 09:08:00,
2013-01-20 04:13:00,41.2,32.6,29.88,West,270,4.5,8.9,71,0.00,,,0.00,WUHU216HW,2013-01-20 09:13:00,
2013-01-20 04:18:00,41.0,32.4,29.87,East,90,3.8,8.9,71,0.00,,,0.00,WUHU216HW,2013-01-20 09:18:00,
2013-01-20 04:23:00,41.0,32.4,29.87,WNW,293,4.7,9.8,71,0.00,,,0.00,WUHU216HW,2013-01-20 09:23:00,
2013-01-20 04:28:00,41.0,32.4,29.87,SW,225,4.7,9.8,71,0.00,,,0.00,WUHU216HW,2013-01-20 09:28:00,
2013-01-20 04:33:00,41.0,32.4,29.87,WNW,293,7.8,9.8,71,0.00,,,0.00,WUHU216HW,2013-01-20 09:33:00,
2013-01-20 04:38:00,41.2,32.2,29.87,WSW,248,7.2,8.5,70,0.00,,,0.00,WUHU216HW,2013-01-20 09:38:00,
2013-01-20 04:43:00,41.2,32.2,29.86,WSW,248,6.3,11.0,70,0.00,,,0.00,WUHU216HW,2013-01-20 09:43:00,
2013-01-20 04:48:00,41.4,32.4,29.86,West,270,6.9,11.0,70,0.00,,,0.00,WUHU216HW,2013-01-20 09:48:00,
2013-01-20 04:53:00,41.4,32.4,29.86,West,270,6.9,9.8,70,0.00,,,0.00,WUHU216HW,2013-01-20 09:53:00,
2013-01-20 04:58:00,41.4,32.4,29.86,WNW,293,8.3,9.8,70,0.00,,,0.00,WUHU216HW,2013-01-20 09:58:00,
2013-01-20 05:03:00,41.4,32.4,29.86,WSW,248,5.4,9.2,70,0.00,,,0.00,WUHU216HW,2013-01-20 10:03:00,
2013-01-20 05:08:00,41.4,32.8,29.86,West,270,5.1,8.5,71,0.00,,,0.00,WUHU216HW,2013-01-20 10:08:00,
2013-01-20 05:13:00,41.4,32.8,29.86,WSW,248,3.8,8.3,71,0.00,,,0.00,WUHU216HW,2013-01-20 10:13:00,
2013-01-20 05:18:00,41.2,32.6,29.86,West,270,2.9,8.3,71,0.00,,,0.00,WUHU216HW,2013-01-20 10:18:00,
2013-01-20 05:23:00,41.2,32.6,29.86,WSW,248,6.9,8.9,71,0.00,,,0.00,WUHU216HW,2013-01-20 10:23:00,
2013-01-20 05:28:00,41.2,32.6,29.85,West,270,4.7,8.9,71,0.00,,,0.00,WUHU216HW,2013-01-20 10:28:00,
2013-01-20 05:33:00,41.0,32.4,29.85,WNW,293,6.3,7.8,71,0.00,,,0.00,WUHU216HW,2013-01-20 10:33:00,
2013-01-20 05:38:00,41.0,32.4,29.85,WSW,248,6.3,9.2,71,0.00,,,0.00,WUHU216HW,2013-01-20 10:38:00,
2013-01-20 05:43:00,41.0,32.4,29.85,WSW,248,1.8,9.2,71,0.00,,,0.00,WUHU216HW,2013-01-20 10:43:00,
2013-01-20 05:48:00,41.0,32.4,29.85,West,270,8.3,8.9,71,0.00,,,0.00,WUHU216HW,2013-01-20 10:48:00,
2013-01-20 05:53:00,41.2,32.6,29.84,West,270,7.2,9.2,71,0.00,,,0.00,WUHU216HW,2013-01-20 10:53:00,
2013-01-20 05:58:00,41.2,32.6,29.84,NW,315,3.8,9.2,71,0.00,,,0.00,WUHU216HW,2013-01-20 10:58:00,
2013-01-20 06:03:00,41.2,32.2,29.83,WNW,293,6.3,8.3,70,0.00,,,0.00,WUHU216HW,2013-01-20 11:03:00,
2013-01-20 06:08:00,41.2,32.2,29.83,WSW,248,3.4,7.2,70,0.00,,,0.00,WUHU216HW,2013-01-20 11:08:00,
2013-01-20 06:13:00,41.0,32.4,29.83,NNW,338,4.9,7.2,71,0.00,,,0.00,WUHU216HW,2013-01-20 11:13:00,
2013-01-20 06:18:00,41.0,32.4,29.83,WSW,248,5.4,7.6,71,0.00,,,0.00,WUHU216HW,2013-01-20 11:18:00,
2013-01-20 06:23:00,41.0,32.4,29.83,West,270,4.7,7.6,71,0.00,,,0.00,WUHU216HW,2013-01-20 11:23:00,
2013-01-20 06:28:00,41.0,32.7,29.83,SW,225,3.4,8.1,72,0.00,,,0.00,WUHU216HW,2013-01-20 11:28:00,
2013-01-20 06:33:00,40.9,32.9,29.83,WSW,248,3.6,8.5,73,0.00,,,0.00,WUHU216HW,2013-01-20 11:33:00,
2013-01-20 06:38:00,40.7,32.7,29.83,West,270,4.7,8.5,73,0.00,,,0.00,WUHU216HW,2013-01-20 11:38:00,
2013-01-20 06:43:00,40.7,33.0,29.83,WSW,248,6.3,7.6,74,0.00,,,0.00,WUHU216HW,2013-01-20 11:43:00,
2013-01-20 06:48:00,40.7,33.0,29.83,WNW,293,4.9,9.2,74,0.00,,,0.00,WUHU216HW,2013-01-20 11:48:00,
2013-01-20 06:53:00,40.7,33.0,29.83,WNW,293,3.6,9.2,74,0.00,,,0.00,WUHU216HW,2013-01-20 11:53:00,
2013-01-20 06:58:00,40.7,33.0,29.83,WNW,293,3.4,7.8,74,0.00,,,0.00,WUHU216HW,2013-01-20 11:58:00,
2013-01-20 07:03:00,40.7,33.0,29.82,SW,225,4.7,8.3,74,0.00,,,0.00,WUHU216HW,2013-01-20 12:03:00,
2013-01-20 07:08:00,40.7,33.0,29.82,WNW,293,4.9,8.3,74,0.00,,,0.00,WUHU216HW,2013-01-20 12:08:00,
2013-01-20 07:13:00,40.7,32.7,29.82,WSW,248,4.3,7.8,73,0.00,,,0.00,WUHU216HW,2013-01-20 12:13:00,
2013-01-20 07:18:00,40.7,32.7,29.82,West,270,2.7,7.8,73,0.00,,,0.00,WUHU216HW,2013-01-20 12:18:00,
2013-01-20 07:23:00,40.7,32.7,29.83,West,270,3.8,7.2,73,0.00,,,0.00,WUHU216HW,2013-01-20 12:23:00,
2013-01-20 07:28:00,40.7,32.7,29.83,NW,315,4.7,7.2,73,0.00,,,0.00,WUHU216HW,2013-01-20 12:28:00,
2013-01-20 07:33:00,40.7,33.0,29.82,SW,225,4.3,6.9,74,0.00,,,0.00,WUHU216HW,2013-01-20 12:33:00,
2013-01-20 07:38:00,40.7,33.0,29.83,WNW,293,4.3,6.3,74,0.00,,,0.00,WUHU216HW,2013-01-20 12:38:00,
2013-01-20 07:43:00,41.2,33.2,29.83,WSW,248,5.8,6.3,73,0.00,,,0.00,WUHU216HW,2013-01-20 12:43:00,
2013-01-20 07:48:00,42.1,33.8,29.83,West,270,5.4,6.3,72,0.00,,,0.00,WUHU216HW,2013-01-20 12:48:00,
2013-01-20 07:53:00,43.0,34.0,29.83,WSW,248,4.5,7.2,70,0.00,,,0.00,WUHU216HW,2013-01-20 12:53:00,
2013-01-20 07:58:00,42.8,34.2,29.83,West,270,6.3,7.4,71,0.00,,,0.00,WUHU216HW,2013-01-20 12:58:00,
2013-01-20 08:03:00,43.0,34.3,29.83,WSW,248,6.9,8.3,71,0.00,,,0.00,WUHU216HW,2013-01-20 13:03:00,
2013-01-20 08:08:00,42.8,34.2,29.83,West,270,5.4,8.3,71,0.00,,,0.00,WUHU216HW,2013-01-20 13:08:00,
2013-01-20 08:13:00,42.5,33.9,29.83,West,270,4.0,8.5,71,0.00,,,0.00,WUHU216HW,2013-01-20 13:13:00,
2013-01-20 08:18:00,42.5,33.9,29.84,WSW,248,2.0,8.5,71,0.00,,,0.00,WUHU216HW,2013-01-20 13:18:00,
2013-01-20 08:24:00,42.7,34.0,29.84,WNW,293,5.6,7.4,71,0.00,,,0.00,WUHU216HW,2013-01-20 13:24:00,
2013-01-20 08:29:00,42.8,34.2,29.84,WSW,248,6.3,7.4,71,0.00,,,0.00,WUHU216HW,2013-01-20 13:29:00,
2013-01-20 08:34:00,43.0,34.3,29.85,WSW,248,5.4,8.3,71,0.00,,,0.00,WUHU216HW,2013-01-20 13:34:00,
2013-01-20 08:39:00,43.0,34.3,29.84,West,270,5.4,8.3,71,0.00,,,0.00,WUHU216HW,2013-01-20 13:39:00,
2013-01-20 08:44:00,43.0,34.3,29.84,West,270,4.7,7.8,71,0.00,,,0.00,WUHU216HW,2013-01-20 13:44:00,
2013-01-20 08:49:00,43.2,34.2,29.84,West,270,5.8,7.6,70,0.00,,,0.00,WUHU216HW,2013-01-20 13:49:00,
2013-01-20 08:53:00,43.2,34.2,29.84,WSW,248,4.7,8.5,70,0.00,,,0.00,WUHU216HW,2013-01-20 13:53:00,
2013-01-20 08:58:00,43.4,34.3,29.84,WNW,293,7.2,8.5,70,0.00,,,0.00,WUHU216HW,2013-01-20 13:58:00,
2013-01-20 09:04:00,43.6,34.8,29.84,WSW,248,4.9,7.4,71,0.00,,,0.00,WUHU216HW,2013-01-20 14:04:00,
2013-01-20 09:09:00,43.6,34.8,29.85,SW,225,4.3,9.2,71,0.00,,,0.00,WUHU216HW,2013-01-20 14:09:00,
2013-01-20 09:14:00,43.6,34.5,29.84,West,270,3.1,9.2,70,0.00,,,0.00,WUHU216HW,2013-01-20 14:14:00,
2013-01-20 09:19:00,43.9,34.5,29.84,WNW,293,4.0,8.9,69,0.00,,,0.00,WUHU216HW,2013-01-20 14:19:00,
2013-01-20 09:24:00,44.3,34.7,29.85,WNW,293,4.5,8.9,69,0.00,,,0.00,WUHU216HW,2013-01-20 14:24:00,
2013-01-20 09:28:00,44.6,34.8,29.84,North,0,3.4,6.9,68,0.00,,,0.00,WUHU216HW,2013-01-20 14:28:00,
2013-01-20 09:34:00,45.0,34.3,29.85,NW,315,5.1,9.8,66,0.00,,,0.00,WUHU216HW,2013-01-20 14:34:00,
2013-01-20 09:38:00,45.4,34.3,29.85,WSW,248,5.1,9.8,65,0.00,,,0.00,WUHU216HW,2013-01-20 14:38:00,
2013-01-20 09:44:00,45.7,34.6,29.85,West,270,7.6,7.8,65,0.00,,,0.00,WUHU216HW,2013-01-20 14:44:00,
2013-01-20 09:49:00,45.9,34.7,29.85,WNW,293,3.1,7.6,65,0.00,,,0.00,WUHU216HW,2013-01-20 14:49:00,
2013-01-20 09:54:00,46.1,34.9,29.85,WNW,293,4.7,8.5,65,0.00,,,0.00,WUHU216HW,2013-01-20 14:54:00,
2013-01-20 09:59:00,46.4,35.3,29.85,West,270,4.3,8.5,65,0.00,,,0.00,WUHU216HW,2013-01-20 14:59:00,
2013-01-20 10:04:00,46.6,35.1,29.85,WSW,248,5.4,5.8,64,0.00,,,0.00,WUHU216HW,2013-01-20 15:04:00,
2013-01-20 10:09:00,47.2,35.2,29.85,WSW,248,6.9,6.9,63,0.00,,,0.00,WUHU216HW,2013-01-20 15:09:00,
2013-01-20 10:14:00,47.5,34.7,29.85,SSW,203,5.1,9.2,61,0.00,,,0.00,WUHU216HW,2013-01-20 15:14:00,
2013-01-20 10:19:00,47.9,35.1,29.84,SW,225,5.8,9.2,61,0.00,,,0.00,WUHU216HW,2013-01-20 15:19:00,
2013-01-20 10:24:00,48.2,35.1,29.84,SW,225,6.9,8.5,60,0.00,,,0.00,WUHU216HW,2013-01-20 15:24:00,
2013-01-20 10:29:00,48.6,35.5,29.84,SW,225,6.9,8.3,60,0.00,,,0.00,WUHU216HW,2013-01-20 15:29:00,
2013-01-20 10:34:00,49.0,35.7,29.84,West,270,6.0,8.1,60,0.00,,,0.00,WUHU216HW,2013-01-20 15:34:00,
2013-01-20 10:39:00,49.5,35.3,29.83,WSW,248,5.6,8.9,58,0.00,,,0.00,WUHU216HW,2013-01-20 15:39:00,
2013-01-20 10:44:00,50.0,34.9,29.83,WNW,293,7.4,9.2,56,0.00,,,0.00,WUHU216HW,2013-01-20 15:44:00,
2013-01-20 10:49:00,50.2,35.1,29.83,West,270,3.6,9.2,56,0.00,,,0.00,WUHU216HW,2013-01-20 15:49:00,
2013-01-20 10:54:00,50.8,35.6,29.83,West,270,3.4,8.1,56,0.00,,,0.00,WUHU216HW,2013-01-20 15:54:00,
2013-01-20 10:59:00,51.3,35.7,29.82,SSW,203,5.4,7.6,55,0.00,,,0.00,WUHU216HW,2013-01-20 15:59:00,
2013-01-20 11:04:00,51.7,35.0,29.82,WNW,293,6.0,9.2,53,0.00,,,0.00,WUHU216HW,2013-01-20 16:04:00,
2013-01-20 11:09:00,52.2,35.6,29.82,West,270,4.3,9.2,53,0.00,,,0.00,WUHU216HW,2013-01-20 16:09:00,
2013-01-20 11:14:00,52.6,35.8,29.81,West,270,4.7,8.1,53,0.00,,,0.00,WUHU216HW,2013-01-20 16:14:00,
2013-01-20 11:19:00,52.9,35.7,29.81,WSW,248,3.6,8.7,52,0.00,,,0.00,WUHU216HW,2013-01-20 16:19:00,
2013-01-20 11:24:00,53.3,35.7,29.81,NNW,338,5.4,9.8,51,0.00,,,0.00,WUHU216HW,2013-01-20 16:24:00,
2013-01-20 11:29:00,53.8,35.1,29.81,NW,315,7.2,9.8,49,0.00,,,0.00,WUHU216HW,2013-01-20 16:29:00,
2013-01-20 11:34:00,54.2,35.4,29.80,WSW,248,2.5,9.8,49,0.00,,,0.00,WUHU216HW,2013-01-20 16:34:00,
2013-01-20 11:39:00,54.5,36.3,29.79,WSW,248,6.7,9.8,50,0.00,,,0.00,WUHU216HW,2013-01-20 16:39:00,
2013-01-20 11:44:00,54.9,36.6,29.79,West,270,6.9,8.5,50,0.00,,,0.00,WUHU216HW,2013-01-20 16:44:00,
2013-01-20 11:49:00,55.4,35.4,29.78,West,270,9.4,10.5,47,0.00,,,0.00,WUHU216HW,2013-01-20 16:49:00,
2013-01-20 11:54:00,56.0,35.4,29.78,NW,315,3.4,10.5,46,0.00,,,0.00,WUHU216HW,2013-01-20 16:54:00,
2013-01-20 11:59:00,56.3,34.6,29.78,WSW,248,10.3,10.3,44,0.00,,,0.00,WUHU216HW,2013-01-20 16:59:00,
2013-01-20 12:04:00,56.7,34.4,29.78,West,270,7.4,12.1,43,0.00,,,0.00,WUHU216HW,2013-01-20 17:04:00,
2013-01-20 12:09:00,56.7,33.8,29.77,WNW,293,10.5,13.0,42,0.00,,,0.00,WUHU216HW,2013-01-20 17:09:00,
2013-01-20 12:14:00,56.7,33.8,29.77,WSW,248,9.2,13.0,42,0.00,,,0.00,WUHU216HW,2013-01-20 17:14:00,
2013-01-20 12:19:00,56.7,33.2,29.77,WNW,293,14.3,14.3,41,0.00,,,0.00,WUHU216HW,2013-01-20 17:19:00,
2013-01-20 12:24:00,56.7,33.2,29.77,WNW,293,7.2,15.4,41,0.00,,,0.00,WUHU216HW,2013-01-20 17:24:00,
2013-01-20 12:29:00,56.9,33.9,29.77,SSW,203,7.4,15.4,42,0.00,,,0.00,WUHU216HW,2013-01-20 17:29:00,
2013-01-20 12:34:00,56.9,33.9,29.77,West,270,5.6,12.3,42,0.00,,,0.00,WUHU216HW,2013-01-20 17:34:00,
2013-01-20 12:39:00,57.2,33.1,29.76,SSW,203,7.6,12.3,40,0.00,,,0.00,WUHU216HW,2013-01-20 17:39:00,
2013-01-20 12:44:00,57.2,33.1,29.77,SW,225,7.6,11.0,40,0.00,,,0.00,WUHU216HW,2013-01-20 17:44:00,
2013-01-20 12:49:00,57.6,32.8,29.76,SSW,203,5.1,11.0,39,0.00,,,0.00,WUHU216HW,2013-01-20 17:49:00,
2013-01-20 12:54:00,57.6,32.8,29.76,SW,225,10.7,12.1,39,0.00,,,0.00,WUHU216HW,2013-01-20 17:54:00,
2013-01-20 12:59:00,57.4,32.6,29.76,North,0,4.7,12.1,39,0.00,,,0.00,WUHU216HW,2013-01-20 17:59:00,
2013-01-20 13:04:00,57.4,31.9,29.76,West,270,4.0,10.7,38,0.00,,,0.00,WUHU216HW,2013-01-20 18:04:00,
2013-01-20 13:09:00,57.2,31.7,29.76,WSW,248,5.1,10.5,38,0.00,,,0.00,WUHU216HW,2013-01-20 18:09:00,
2013-01-20 13:14:00,57.2,31.1,29.76,NW,315,6.0,10.5,37,0.00,,,0.00,WUHU216HW,2013-01-20 18:14:00,
2013-01-20 13:19:00,57.2,31.1,29.76,NNW,338,3.1,10.3,37,0.00,,,0.00,WUHU216HW,2013-01-20 18:19:00,
2013-01-20 13:24:00,57.2,31.1,29.76,NNE,23,3.4,7.6,37,0.00,,,0.00,WUHU216HW,2013-01-20 18:24:00,
2013-01-20 13:29:00,57.2,30.3,29.76,SW,225,4.5,6.9,36,0.00,,,0.00,WUHU216HW,2013-01-20 18:29:00,
2013-01-20 13:34:00,57.1,30.9,29.76,NW,315,4.0,6.0,37,0.00,,,0.00,WUHU216HW,2013-01-20 18:34:00,
2013-01-20 13:39:00,56.9,30.7,29.76,WSW,248,4.5,7.4,37,0.00,,,0.00,WUHU216HW,2013-01-20 18:39:00,
2013-01-20 13:44:00,56.9,31.4,29.76,NW,315,5.4,7.4,38,0.00,,,0.00,WUHU216HW,2013-01-20 18:44:00,
2013-01-20 13:49:00,56.9,31.4,29.77,West,270,6.9,8.3,38,0.00,,,0.00,WUHU216HW,2013-01-20 18:49:00,
2013-01-20 13:54:00,56.7,31.2,29.77,WSW,248,4.0,8.3,38,0.00,,,0.00,WUHU216HW,2013-01-20 18:54:00,
2013-01-20 13:59:00,56.5,31.1,29.77,West,270,9.6,12.1,38,0.00,,,0.00,WUHU216HW,2013-01-20 18:59:00,
2013-01-20 14:04:00,56.3,31.6,29.77,SSW,203,6.0,12.1,39,0.00,,,0.00,WUHU216HW,2013-01-20 19:04:00,
2013-01-20 14:09:00,56.0,31.3,29.77,West,270,4.5,11.2,39,0.00,,,0.00,WUHU216HW,2013-01-20 19:09:00,
2013-01-20 14:14:00,56.0,32.0,29.78,NNE,23,3.6,11.2,40,0.00,,,0.00,WUHU216HW,2013-01-20 19:14:00,
2013-01-20 14:19:00,56.0,32.0,29.78,WSW,248,2.5,8.5,40,0.00,,,0.00,WUHU216HW,2013-01-20 19:19:00,
2013-01-20 14:24:00,56.2,32.7,29.78,West,270,4.5,8.5,41,0.00,,,0.00,WUHU216HW,2013-01-20 19:24:00,
2013-01-20 14:29:00,56.2,32.7,29.78,WSW,248,2.5,9.8,41,0.00,,,0.00,WUHU216HW,2013-01-20 19:29:00,
2013-01-20 14:34:00,56.2,32.7,29.78,West,270,3.8,9.8,41,0.00,,,0.00,WUHU216HW,2013-01-20 19:34:00,
2013-01-20 14:39:00,56.2,32.1,29.78,North,0,4.0,8.9,40,0.00,,,0.00,WUHU216HW,2013-01-20 19:39:00,
2013-01-20 14:44:00,56.3,32.3,29.78,West,270,6.9,9.8,40,0.00,,,0.00,WUHU216HW,2013-01-20 19:44:00,
2013-01-20 14:49:00,56.3,32.9,29.79,West,270,8.1,10.3,41,0.00,,,0.00,WUHU216HW,2013-01-20 19:49:00,
2013-01-20 14:54:00,56.2,32.7,29.79,SSW,203,1.8,10.3,41,0.00,,,0.00,WUHU216HW,2013-01-20 19:54:00,
2013-01-20 14:59:00,56.2,32.7,29.79,WSW,248,2.5,8.7,41,0.00,,,0.00,WUHU216HW,2013-01-20 19:59:00,
2013-01-20 15:04:00,56.0,32.6,29.79,North,0,3.4,6.9,41,0.00,,,0.00,WUHU216HW,2013-01-20 20:04:00,
2013-01-20 15:09:00,56.0,32.6,29.79,NNW,338,2.5,6.7,41,0.00,,,0.00,WUHU216HW,2013-01-20 20:09:00,
2013-01-20 15:14:00,56.2,32.7,29.80,North,0,3.1,7.6,41,0.00,,,0.00,WUHU216HW,2013-01-20 20:14:00,
2013-01-20 15:19:00,55.8,32.4,29.80,WNW,293,4.0,7.6,41,0.00,,,0.00,WUHU216HW,2013-01-20 20:19:00,
2013-01-20 15:24:00,55.8,32.9,29.80,WNW,293,4.7,7.4,42,0.00,,,0.00,WUHU216HW,2013-01-20 20:24:00,
2013-01-20 15:29:00,55.8,33.5,29.80,WSW,248,2.9,7.4,43,0.00,,,0.00,WUHU216HW,2013-01-20 20:29:00,
2013-01-20 15:34:00,55.8,32.9,29.80,NW,315,3.4,6.3,42,0.00,,,0.00,WUHU216HW,2013-01-20 20:34:00,
2013-01-20 15:39:00,55.6,32.8,29.80,NW,315,5.8,6.7,42,0.00,,,0.00,WUHU216HW,2013-01-20 20:39:00,
2013-01-20 15:44:00,55.6,32.8,29.81,NE,45,4.0,7.4,42,0.00,,,0.00,WUHU216HW,2013-01-20 20:44:00,
2013-01-20 15:49:00,55.3,31.9,29.81,NNW,338,2.9,9.2,41,0.00,,,0.00,WUHU216HW,2013-01-20 20:49:00,
2013-01-20 15:54:00,55.1,32.3,29.81,NW,315,1.6,9.2,42,0.00,,,0.00,WUHU216HW,2013-01-20 20:54:00,
2013-01-20 15:59:00,54.9,32.7,29.81,NW,315,2.2,8.3,43,0.00,,,0.00,WUHU216HW,2013-01-20 20:59:00,
2013-01-20 16:04:00,54.7,32.0,29.81,WNW,293,1.1,8.3,42,0.00,,,0.00,WUHU216HW,2013-01-20 21:04:00,
2013-01-20 16:09:00,54.5,32.4,29.82,WNW,293,3.4,5.8,43,0.00,,,0.00,WUHU216HW,2013-01-20 21:09:00,
2013-01-20 16:14:00,54.4,31.1,29.82,NW,315,1.6,5.1,41,0.00,,,0.00,WUHU216HW,2013-01-20 21:14:00,
2013-01-20 16:19:00,54.2,31.5,29.82,West,270,2.7,5.1,42,0.00,,,0.00,WUHU216HW,2013-01-20 21:19:00,
2013-01-20 16:24:00,53.8,31.1,29.82,NW,315,1.6,4.9,42,0.00,,,0.00,WUHU216HW,2013-01-20 21:24:00,
2013-01-20 16:29:00,53.6,31.0,29.83,North,0,2.2,4.7,42,0.00,,,0.00,WUHU216HW,2013-01-20 21:29:00,
2013-01-20 16:34:00,53.3,30.7,29.83,North,0,1.8,5.1,42,0.00,,,0.00,WUHU216HW,2013-01-20 21:34:00,
2013-01-20 16:39:00,52.9,30.9,29.83,NNW,338,2.5,5.6,43,0.00,,,0.00,WUHU216HW,2013-01-20 21:39:00,
2013-01-20 16:44:00,52.6,30.1,29.84,NNW,338,2.5,5.6,42,0.00,,,0.00,WUHU216HW,2013-01-20 21:44:00,
2013-01-20 16:49:00,52.2,27.9,29.85,NNE,23,3.4,6.5,39,0.00,,,0.00,WUHU216HW,2013-01-20 21:49:00,
2013-01-20 16:54:00,52.0,28.5,29.85,West,270,1.8,6.5,40,0.00,,,0.00,WUHU216HW,2013-01-20 21:54:00,
2013-01-20 16:59:00,51.5,27.3,29.85,NNW,338,4.7,4.7,39,0.00,,,0.00,WUHU216HW,2013-01-20 21:59:00,
2013-01-20 17:04:00,51.3,27.1,29.86,West,270,3.1,4.7,39,0.00,,,0.00,WUHU216HW,2013-01-20 22:04:00,
2013-01-20 17:09:00,51.1,26.9,29.86,NE,45,4.5,4.7,39,0.00,,,0.00,WUHU216HW,2013-01-20 22:09:00,
2013-01-20 17:14:00,50.8,27.3,29.86,NNW,338,2.9,4.5,40,0.00,,,0.00,WUHU216HW,2013-01-20 22:14:00,
2013-01-20 17:19:00,50.4,27.0,29.86,North,0,3.4,5.4,40,0.00,,,0.00,WUHU216HW,2013-01-20 22:19:00,
2013-01-20 17:24:00,50.0,25.3,29.87,West,270,7.6,7.6,38,0.00,,,0.00,WUHU216HW,2013-01-20 22:24:00,
2013-01-20 17:29:00,50.0,25.3,29.88,NW,315,2.5,7.6,38,0.00,,,0.00,WUHU216HW,2013-01-20 22:29:00,
2013-01-20 17:34:00,49.7,25.7,29.88,NNE,23,0.9,7.6,39,0.00,,,0.00,WUHU216HW,2013-01-20 22:34:00,
2013-01-20 17:39:00,49.3,25.3,29.88,North,0,1.8,4.3,39,0.00,,,0.00,WUHU216HW,2013-01-20 22:39:00,
2013-01-20 17:44:00,49.1,24.5,29.89,NNW,338,4.5,7.4,38,0.00,,,0.00,WUHU216HW,2013-01-20 22:44:00,
2013-01-20 17:49:00,49.0,25.7,29.90,NW,315,1.3,7.4,40,0.00,,,0.00,WUHU216HW,2013-01-20 22:49:00,
2013-01-20 17:54:00,48.6,24.7,29.90,NNW,338,2.9,4.5,39,0.00,,,0.00,WUHU216HW,2013-01-20 22:54:00,
2013-01-20 17:59:00,48.4,25.2,29.90,NW,315,2.2,4.5,40,0.00,,,0.00,WUHU216HW,2013-01-20 22:59:00,
2013-01-20 18:04:00,48.1,24.8,29.89,NNE,23,2.7,4.0,40,0.00,,,0.00,WUHU216HW,2013-01-20 23:04:00,
2013-01-20 18:09:00,47.7,23.9,29.90,NNW,338,5.6,5.6,39,0.00,,,0.00,WUHU216HW,2013-01-20 23:09:00,
2013-01-20 18:14:00,47.7,23.9,29.90,North,0,0.4,5.6,39,0.00,,,0.00,WUHU216HW,2013-01-20 23:14:00,
2013-01-20 18:19:00,47.3,24.2,29.90,WNW,293,3.4,5.6,40,0.00,,,0.00,WUHU216HW,2013-01-20 23:19:00,
2013-01-20 18:24:00,47.2,23.4,29.91,North,0,4.7,6.3,39,0.00,,,0.00,WUHU216HW,2013-01-20 23:24:00,
2013-01-20 18:29:00,47.0,23.2,29.91,NNE,23,2.5,6.3,39,0.00,,,0.00,WUHU216HW,2013-01-20 23:29:00,
2013-01-20 18:34:00,46.8,21.7,29.92,NNW,338,4.7,4.7,37,0.00,,,0.00,WUHU216HW,2013-01-20 23:34:00,
2013-01-20 18:39:00,46.8,21.7,29.92,North,0,2.5,6.3,37,0.00,,,0.00,WUHU216HW,2013-01-20 23:39:00,
2013-01-20 18:44:00,46.6,22.2,29.92,NNW,338,4.7,6.3,38,0.00,,,0.00,WUHU216HW,2013-01-20 23:44:00,
2013-01-20 18:49:00,46.3,23.2,29.93,North,0,3.1,5.4,40,0.00,,,0.00,WUHU216HW,2013-01-20 23:49:00,
2013-01-20 18:54:00,45.7,22.8,29.94,North,0,6.3,6.3,40,0.00,,,0.00,WUHU216HW,2013-01-20 23:54:00,
2013-01-20 18:59:00,45.7,21.4,29.94,North,0,1.6,6.5,38,0.00,,,0.00,WUHU216HW,2013-01-20 23:59:00,
2013-01-20 19:04:00,45.5,22.0,29.94,NNW,338,2.2,8.5,39,0.00,,,0.00,WUHU216HW,2013-01-21 00:04:00,
2013-01-20 19:09:00,45.2,19.6,29.94,North,0,5.6,8.5,36,0.00,,,0.00,WUHU216HW,2013-01-21 00:09:00,
2013-01-20 19:14:00,45.0,20.8,29.94,North,0,3.1,7.4,38,0.00,,,0.00,WUHU216HW,2013-01-21 00:14:00,
2013-01-20 19:19:00,44.8,20.0,29.94,North,0,1.8,8.1,37,0.00,,,0.00,WUHU216HW,2013-01-21 00:19:00,
2013-01-20 19:24:00,44.6,18.5,29.95,NNW,338,4.9,8.1,35,0.00,,,0.00,WUHU216HW,2013-01-21 00:24:00,
2013-01-20 19:29:00,44.5,18.3,29.95,NNW,338,2.7,8.9,35,0.00,,,0.00,WUHU216HW,2013-01-21 00:29:00,
2013-01-20 19:34:00,44.1,19.3,29.96,WSW,248,2.0,8.9,37,0.00,,,0.00,WUHU216HW,2013-01-21 00:34:00,
2013-01-20 19:39:00,43.9,19.2,29.96,North,0,4.3,7.2,37,0.00,,,0.00,WUHU216HW,2013-01-21 00:39:00,
2013-01-20 19:44:00,43.7,18.3,29.97,NNW,338,2.2,5.8,36,0.00,,,0.00,WUHU216HW,2013-01-21 00:44:00,
2013-01-20 19:49:00,43.6,18.2,29.96,North,0,4.3,8.5,36,0.00,,,0.00,WUHU216HW,2013-01-21 00:49:00,
2013-01-20 19:54:00,43.2,18.5,29.96,WNW,293,1.8,8.5,37,0.00,,,0.00,WUHU216HW,2013-01-21 00:54:00,
2013-01-20 19:59:00,42.8,17.5,29.97,North,0,3.8,6.9,36,0.00,,,0.00,WUHU216HW,2013-01-21 00:59:00,
2013-01-20 20:04:00,42.8,18.8,29.97,North,0,1.6,6.9,38,0.00,,,0.00,WUHU216HW,2013-01-21 01:04:00,
2013-01-20 20:09:00,42.5,18.6,29.98,NNW,338,2.9,6.0,38,0.00,,,0.00,WUHU216HW,2013-01-21 01:09:00,
2013-01-20 20:14:00,42.1,19.5,29.98,North,0,4.7,6.3,40,0.00,,,0.00,WUHU216HW,2013-01-21 01:14:00,
2013-01-20 20:19:00,41.9,19.4,29.99,NNW,338,4.7,6.3,40,0.00,,,0.00,WUHU216HW,2013-01-21 01:19:00,
2013-01-20 20:24:00,41.8,19.2,29.99,NNW,338,2.5,8.5,40,0.00,,,0.00,WUHU216HW,2013-01-21 01:24:00,
2013-01-20 20:29:00,41.6,19.5,30.00,NNW,338,6.3,8.5,41,0.00,,,0.00,WUHU216HW,2013-01-21 01:29:00,
2013-01-20 20:34:00,41.4,19.9,30.00,North,0,5.8,9.2,42,0.00,,,0.00,WUHU216HW,2013-01-21 01:34:00,
2013-01-20 20:39:00,41.0,19.1,30.00,NE,45,4.7,9.2,41,0.00,,,0.00,WUHU216HW,2013-01-21 01:39:00,
2013-01-20 20:44:00,40.9,19.5,30.00,NNW,338,8.1,8.5,42,0.00,,,0.00,WUHU216HW,2013-01-21 01:44:00,
2013-01-20 20:49:00,40.7,19.3,30.00,North,0,1.8,9.2,42,0.00,,,0.00,WUHU216HW,2013-01-21 01:49:00,
2013-01-20 20:54:00,40.5,19.1,30.01,North,0,4.3,9.2,42,0.00,,,0.00,WUHU216HW,2013-01-21 01:54:00,
2013-01-20 20:59:00,40.1,18.8,30.01,North,0,3.4,10.5,42,0.00,,,0.00,WUHU216HW,2013-01-21 01:59:00,
2013-01-20 21:04:00,40.0,18.6,30.01,NW,315,3.4,10.5,42,0.00,,,0.00,WUHU216HW,2013-01-21 02:04:00,
2013-01-20 21:09:00,40.0,19.2,30.01,NNW,338,3.8,8.5,43,0.00,,,0.00,WUHU216HW,2013-01-21 02:09:00,
2013-01-20 21:14:00,39.6,19.9,30.02,NNE,23,3.6,7.6,45,0.00,,,0.00,WUHU216HW,2013-01-21 02:14:00,
2013-01-20 21:19:00,39.2,19.5,30.02,North,0,2.5,6.9,45,0.00,,,0.00,WUHU216HW,2013-01-21 02:19:00,
2013-01-20 21:24:00,39.2,19.0,30.03,NNW,338,5.4,6.3,44,0.00,,,0.00,WUHU216HW,2013-01-21 02:24:00,
2013-01-20 21:29:00,39.1,18.8,30.03,NW,315,3.1,9.6,44,0.00,,,0.00,WUHU216HW,2013-01-21 02:29:00,
2013-01-20 21:34:00,38.7,19.1,30.03,North,0,2.5,9.6,45,0.00,,,0.00,WUHU216HW,2013-01-21 02:34:00,
2013-01-20 21:39:00,38.5,18.9,30.04,WNW,293,2.0,5.6,45,0.00,,,0.00,WUHU216HW,2013-01-21 02:39:00,
2013-01-20 21:44:00,38.3,18.2,30.04,NNE,23,3.8,5.4,44,0.00,,,0.00,WUHU216HW,2013-01-21 02:44:00,
2013-01-20 21:49:00,38.0,18.4,30.04,NNW,338,0.4,3.8,45,0.00,,,0.00,WUHU216HW,2013-01-21 02:49:00,
2013-01-20 21:54:00,37.8,18.3,30.04,North,0,1.6,4.3,45,0.00,,,0.00,WUHU216HW,2013-01-21 02:54:00,
2013-01-20 21:59:00,37.4,17.9,30.04,NNW,338,1.8,5.4,45,0.00,,,0.00,WUHU216HW,2013-01-21 02:59:00,
2013-01-20 22:04:00,37.4,17.9,30.05,NNW,338,2.5,5.4,45,0.00,,,0.00,WUHU216HW,2013-01-21 03:04:00,
2013-01-20 22:09:00,37.1,17.1,30.05,North,0,5.4,5.6,44,0.00,,,0.00,WUHU216HW,2013-01-21 03:09:00,
2013-01-20 22:14:00,37.1,17.1,30.05,North,0,3.8,5.6,44,0.00,,,0.00,WUHU216HW,2013-01-21 03:14:00,
2013-01-20 22:19:00,36.9,17.5,30.05,NW,315,2.5,5.4,45,0.00,,,0.00,WUHU216HW,2013-01-21 03:19:00,
2013-01-20 22:24:00,36.7,17.3,30.06,NNW,338,1.1,6.0,45,0.00,,,0.00,WUHU216HW,2013-01-21 03:24:00,
2013-01-20 22:29:00,36.7,17.3,30.06,North,0,4.9,6.0,45,0.00,,,0.00,WUHU216HW,2013-01-21 03:29:00,
2013-01-20 22:34:00,36.5,16.0,30.06,North,0,4.9,7.8,43,0.00,,,0.00,WUHU216HW,2013-01-21 03:34:00,
2013-01-20 22:39:00,36.4,16.9,30.06,NNW,338,2.5,7.8,45,0.00,,,0.00,WUHU216HW,2013-01-21 03:39:00,
2013-01-20 22:44:00,36.4,16.9,30.06,NW,315,0.9,4.9,45,0.00,,,0.00,WUHU216HW,2013-01-21 03:44:00,
2013-01-20 22:49:00,36.0,16.7,30.06,NNW,338,0.2,3.4,45,0.00,,,0.00,WUHU216HW,2013-01-21 03:49:00,
2013-01-20 22:54:00,35.6,16.3,30.07,NNW,338,1.6,3.4,45,0.00,,,0.00,WUHU216HW,2013-01-21 03:54:00,
2013-01-20 22:59:00,35.6,16.3,30.07,North,0,0.9,3.4,45,0.00,,,0.00,WUHU216HW,2013-01-21 03:59:00,
2013-01-20 23:04:00,35.5,16.7,30.07,West,270,2.2,4.9,46,0.00,,,0.00,WUHU216HW,2013-01-21 04:04:00,
2013-01-20 23:09:00,35.3,15.9,30.07,NNE,23,1.6,4.9,45,0.00,,,0.00,WUHU216HW,2013-01-21 04:09:00,
2013-01-20 23:14:00,35.3,16.5,30.07,North,0,1.1,4.9,46,0.00,,,0.00,WUHU216HW,2013-01-21 04:14:00,
2013-01-20 23:19:00,35.1,15.8,30.07,NNW,338,1.8,5.8,45,0.00,,,0.00,WUHU216HW,2013-01-21 04:19:00,
2013-01-20 23:24:00,34.9,15.6,30.07,North,0,4.0,6.3,45,0.00,,,0.00,WUHU216HW,2013-01-21 04:24:00,
2013-01-20 23:29:00,34.9,15.6,30.07,NNE,23,1.8,6.3,45,0.00,,,0.00,WUHU216HW,2013-01-21 04:29:00,
2013-01-20 23:34:00,34.9,15.6,30.08,NW,315,2.0,5.4,45,0.00,,,0.00,WUHU216HW,2013-01-21 04:34:00,
2013-01-20 23:39:00,34.7,15.0,30.08,North,0,2.2,5.8,44,0.00,,,0.00,WUHU216HW,2013-01-21 04:39:00,
2013-01-20 23:44:00,34.7,15.4,30.07,North,0,0.4,5.8,45,0.00,,,0.00,WUHU216HW,2013-01-21 04:44:00,
2013-01-20 23:49:00,34.6,15.3,30.07,West,270,0.9,4.7,45,0.00,,,0.00,WUHU216HW,2013-01-21 04:49:00,
2013-01-20 23:54:00,34.4,15.6,30.08,NW,315,1.1,4.5,46,0.00,,,0.00,WUHU216HW,2013-01-21 04:54:00,
2013-01-20 23:59:00,34.2,15.0,30.08,NNW,338,3.4,4.0,45,0.00,,,0.00,WUHU216HW,2013-01-21 04:59:00,